User: anonymous   Login
Location: Newark
(52.4480°N, 1.4938°W)
Time: 05:35:43
(UTC+00:00)
Language:

CAS-6 - Orbit

View from above orbital plane
View from above orbital plane
View from above satellite
View from above satellite

Ground track
Ground track

The orbit data is extracted from the following two-line orbital elements,

1 44881U 19093C   20330.82382525  .00000095  00000-0  18932-4 0  9991
2 44881  97.9452  45.6641 0013698 230.4979 129.5022 14.81411204 50585
Epoch (UTC): 25 November 2020 19:46:18
Eccentricity: 0.0013698
inclination: 97.9452°
perigee height: 615 km
apogee height: 634 km
right ascension of ascending node: 45.6641°
argument of perigee: 230.4979°
revolutions per day: 14.81411204
mean anomaly at epoch: 129.5022°
orbit number at epoch: 5058

The dashed part of the orbit path shows where the satellite is in the earth's shadow,  

DLR